Simultaneous Nadir Overpasses (SNOs) Predictions

Prediction of SNOs between GOES-17 and NOAA-19 Satellite Orbit:

Table of predicted SNOs for the next 14.0 days since TLE Epoch: 3/23/2024
Index Date Time (GOES-17) GOES-17 Lat,Lon NOAA-19 Lat,Lon Distance(km) Time Diff (sec)
1 03/25/2024 04:16:50 0.00,-104.68 -0.53,-106.86 249.67 80
2 03/26/2024 04:01:57 0.00,-104.68 0.18,-103.89 89.45 80
3 03/27/2024 03:49:45 0.00,-104.68 0.88,-100.93 428.56 80
4 03/28/2024 16:21:30 0.00,-104.68 0.91,-108.54 441.17 80
5 03/29/2024 16:09:17 0.00,-104.68 0.23,-105.57 101.99 80
6 03/30/2024 15:59:44 0.01,-104.68 -0.50,-102.61 237.18 80
7 04/02/2024 04:19:29 0.00,-104.67 -0.60,-107.31 300.74 80
8 04/03/2024 04:04:36 0.00,-104.66 0.07,-104.33 37.89 80
9 04/04/2024 03:52:22 0.00,-104.66 0.75,-101.36 376.64 80
10 04/05/2024 16:24:06 -0.00,-104.65 1.02,-108.97 493.03 80
